| time (UTC) | temp F | wind direction | speed MPH | gust MPH | rain 1hr in | rain 24hr in | rain mn in | humidity % | barometer mb |
| 20260505140233 | 52 | 53 | 14.0 | 25.0 | 0.00 | 0.00 | 0.00 | 53 | 1009.8 |
| 20260505130225 | 52 | 45 | 15.0 | 22.0 | 0.00 | 0.00 | 0.00 | 52 | 1009.1 |
| 20260505124724 | 53 | 77 | 14.0 | 23.0 | 0.00 | 0.00 | 0.00 | 52 | 1008.8 |
| 20260505124223 | 53 | 69 | 15.0 | 21.0 | 0.00 | 0.00 | 0.00 | 54 | 1008.6 |
| 20260505123721 | 52 | 62 | 17.0 | 18.0 | 0.00 | 0.00 | 0.00 | 55 | 1008.6 |
| 20260505123221 | 53 | 107 | 12.0 | 17.0 | 0.00 | 0.00 | 0.00 | 55 | 1008.8 |
| 20260505122721 | 53 | 52 | 11.0 | 13.0 | 0.00 | 0.00 | 0.00 | 55 | 1008.9 |
| 20260505122219 | 53 | 51 | 8.0 | 15.0 | 0.00 | 0.00 | 0.00 | 54 | 1009.0 |
| 20260505121718 | 53 | 51 | 11.0 | 23.0 | 0.00 | 0.00 | 0.00 | 55 | 1008.8 |
| 20260505121217 | 53 | 59 | 15.0 | 19.0 | 0.00 | 0.00 | 0.00 | 55 | 1008.6 |
| 20260505120716 | 52 | 58 | 12.0 | 19.0 | 0.00 | 0.00 | 0.00 | 57 | 1008.4 |
| 20260505120216 | 53 | 55 | 14.0 | 22.0 | 0.00 | 0.00 | 0.00 | 57 | 1008.3 |
| 20260505115715 | 52 | 62 | 15.0 | 18.0 | 0.00 | 0.00 | 0.00 | 58 | 1008.2 |
| 20260505115401 | 52 | 69 | 13.0 | 15.0 | 0.00 | 0.00 | 0.00 | 59 | 1008.2 |
| 20260505115215 | 52 | 69 | 13.0 | 15.0 | 0.00 | 0.00 | 0.00 | 59 | 1008.2 |
| 20260505114714 | 52 | 58 | 12.0 | 16.0 | 0.00 | 0.00 | 0.00 | 59 | 1008.1 |
| 20260505114214 | 52 | 75 | 13.0 | 18.0 | 0.00 | 0.00 | 0.00 | 59 | 1008.0 |
| 20260505113713 | 52 | 63 | 14.0 | 17.0 | 0.00 | 0.00 | 0.00 | 57 | 1007.8 |
| 20260505113213 | 53 | 87 | 13.0 | 14.0 | 0.00 | 0.00 | 0.00 | 56 | 1008.0 |
| 20260505112711 | 53 | 80 | 10.0 | 13.0 | 0.00 | 0.00 | 0.00 | 57 | 1008.1 |
| 20260505112211 | 53 | 60 | 10.0 | 12.0 | 0.00 | 0.00 | 0.00 | 56 | 1008.1 |
| 20260505111808 | 53 | 93 | 10.0 | 13.0 | 0.00 | 0.00 | 0.00 | 56 | 1008.1 |
| 20260505111710 | 53 | 93 | 10.0 | 13.0 | 0.00 | 0.00 | 0.00 | 56 | 1008.1 |
| 20260505111210 | 53 | 77 | 9.0 | 13.0 | 0.00 | 0.00 | 0.00 | 57 | 1008.1 |
| 20260505110709 | 53 | 72 | 10.0 | 16.0 | 0.00 | 0.00 | 0.00 | 57 | 1008.0 |
| 20260505110209 | 53 | 83 | 12.0 | 16.0 | 0.00 | 0.00 | 0.00 | 57 | 1007.8 |
| 20260505102205 | 53 | 84 | 13.0 | 13.0 | 0.00 | 0.00 | 0.00 | 56 | 1007.4 |
| 20260505101704 | 53 | 89 | 10.0 | 12.0 | 0.00 | 0.00 | 0.00 | 57 | 1007.3 |
| 20260505101204 | 53 | 94 | 10.0 | 15.0 | 0.00 | 0.00 | 0.00 | 57 | 1007.0 |
| 20260505100703 | 53 | 93 | 11.0 | 14.0 | 0.00 | 0.00 | 0.00 | 56 | 1007.0 |
| 20260505100203 | 53 | 90 | 10.0 | 13.0 | 0.00 | 0.00 | 0.00 | 57 | 1007.0 |
| 20260505095702 | 53 | 86 | 10.0 | 12.0 | 0.00 | 0.00 | 0.00 | 57 | 1007.0 |
| 20260505095201 | 53 | 108 | 8.0 | 9.0 | 0.00 | 0.00 | 0.00 | 56 | 1007.0 |
| 20260505094701 | 53 | 60 | 6.0 | 9.0 | 0.00 | 0.00 | 0.00 | 55 | 1007.0 |
| 20260505094200 | 53 | 70 | 7.0 | 6.0 | 0.00 | 0.00 | 0.00 | 54 | 1007.0 |
| 20260505093700 | 53 | 60 | 4.0 | 5.0 | 0.00 | 0.00 | 0.00 | 54 | 1007.0 |
| 20260505093159 | 52 | 46 | 3.0 | 8.0 | 0.00 | 0.00 | 0.00 | 54 | 1006.9 |
| 20260505092659 | 52 | 91 | 2.0 | 10.0 | 0.00 | 0.00 | 0.00 | 54 | 1006.9 |
| 20260505092158 | 51 | 105 | 4.0 | 6.0 | 0.00 | 0.00 | 0.00 | 55 | 1006.8 |
| 20260505091658 | 50 | 94 | 5.0 | 7.0 | 0.00 | 0.00 | 0.00 | 55 | 1006.7 |
| 20260505091157 | 49 | 110 | 4.0 | 6.0 | 0.00 | 0.00 | 0.00 | 58 | 1006.7 |
| 20260505090657 | 49 | 115 | 5.0 | 7.0 | 0.00 | 0.00 | 0.00 | 57 | 1006.7 |
| 20260505090156 | 49 | 114 | 4.0 | 7.0 | 0.00 | 0.00 | 0.00 | 58 | 1006.7 |
| 20260505085656 | 48 | 80 | 5.0 | 6.0 | 0.00 | 0.00 | 0.00 | 57 | 1006.6 |
| 20260505085155 | 48 | 32 | 2.0 | 7.0 | 0.00 | 0.00 | 0.00 | 61 | 1006.5 |
| 20260505084655 | 49 | 80 | 2.0 | 6.0 | 0.00 | 0.00 | 0.00 | 60 | 1006.3 |
| 20260505084154 | 49 | 169 | 5.0 | 5.0 | 0.00 | 0.00 | 0.00 | 59 | 1006.2 |
| 20260505083654 | 49 | 150 | 4.0 | 4.0 | 0.00 | 0.00 | 0.00 | 57 | 1006.3 |
| 20260505083153 | 50 | 153 | 3.0 | 4.0 | 0.00 | 0.00 | 0.00 | 56 | 1006.3 |
| 20260505082653 | 50 | 212 | 2.0 | 5.0 | 0.00 | 0.00 | 0.00 | 57 | 1006.2 |
| 20260505082152 | 51 | 176 | 4.0 | 6.0 | 0.00 | 0.00 | 0.00 | 56 | 1006.2 |
| 20260505081652 | 51 | 110 | 4.0 | 6.0 | 0.00 | 0.00 | 0.00 | 52 | 1006.2 |
| 20260505081151 | 52 | 108 | 3.0 | 4.0 | 0.00 | 0.00 | 0.00 | 54 | 1006.2 |
| 20260505080651 | 52 | 60 | 3.0 | 4.0 | 0.00 | 0.00 | 0.00 | 55 | 1006.2 |
| 20260505080150 | 53 | 128 | 2.0 | 6.0 | 0.00 | 0.00 | 0.00 | 54 | 1006.1 |
| 20260505075650 | 53 | 163 | 5.0 | 5.0 | 0.00 | 0.00 | 0.00 | 50 | 1006.0 |
| 20260505075149 | 53 | 156 | 5.0 | 4.0 | 0.00 | 0.00 | 0.00 | 51 | 1006.0 |
| 20260505074801 | 53 | 127 | 1.0 | 1.0 | 0.00 | 0.00 | 0.00 | 51 | 1006.2 |
| 20260505074649 | 53 | 127 | 1.0 | 1.0 | 0.00 | 0.00 | 0.00 | 51 | 1006.2 |
| 20260505074150 | 53 | 80 | 0.0 | 4.0 | 0.00 | 0.00 | 0.00 | 51 | 1006.2 |
| 20260505073648 | 53 | 155 | 2.0 | 9.0 | 0.00 | 0.00 | 0.00 | 52 | 1006.2 |
| 20260505073148 | 53 | 53 | 5.0 | 8.0 | 0.00 | 0.00 | 0.00 | 52 | 1006.2 |
| 20260505072648 | 54 | 30 | 5.0 | 7.0 | 0.00 | 0.00 | 0.00 | 48 | 1006.1 |
| 20260505072147 | 54 | 49 | 6.0 | 9.0 | 0.00 | 0.00 | 0.00 | 47 | 1006.1 |
| 20260505071647 | 55 | 37 | 7.0 | 11.0 | 0.00 | 0.00 | 0.00 | 45 | 1006.0 |
| 20260505071146 | 56 | 46 | 10.0 | 13.0 | 0.00 | 0.00 | 0.00 | 43 | 1005.9 |
| 20260505070645 | 55 | 60 | 11.0 | 13.0 | 0.00 | 0.00 | 0.00 | 43 | 1005.8 |
| 20260505070145 | 57 | 55 | 9.0 | 9.0 | 0.00 | 0.00 | 0.00 | 41 | 1005.8 |
| 20260505065645 | 56 | 80 | 8.0 | 13.0 | 0.00 | 0.00 | 0.00 | 41 | 1005.6 |
| 20260505065143 | 54 | 69 | 11.0 | 15.0 | 0.00 | 0.00 | 0.00 | 44 | 1005.5 |
| 20260505064643 | 53 | 28 | 10.0 | 8.0 | 0.00 | 0.00 | 0.00 | 43 | 1005.5 |
| 20260505064143 | 53 | 186 | 7.0 | 9.0 | 0.00 | 0.00 | 0.00 | 43 | 1005.3 |
| 20260505063142 | 52 | 201 | 7.0 | 10.0 | 0.00 | 0.00 | 0.00 | 44 | 1005.2 |
| 20260505062641 | 52 | 207 | 8.0 | 10.0 | 0.00 | 0.00 | 0.00 | 43 | 1005.2 |
| 20260505062141 | 52 | 207 | 9.0 | 10.0 | 0.00 | 0.00 | 0.00 | 44 | 1005.2 |
| 20260505061640 | 53 | 198 | 8.0 | 10.0 | 0.00 | 0.00 | 0.00 | 44 | 1005.1 |
| 20260505061137 | 53 | 197 | 7.0 | 9.0 | 0.00 | 0.00 | 0.00 | 43 | 1005.1 |
| 20260505060135 | 55 | 203 | 7.0 | 6.0 | 0.00 | 0.00 | 0.00 | 38 | 1005.1 |
| 20260505055634 | 55 | 186 | 5.0 | 8.0 | 0.00 | 0.00 | 0.00 | 38 | 1005.1 |
| 20260505055134 | 54 | 179 | 7.0 | 8.0 | 0.00 | 0.00 | 0.00 | 37 | 1005.0 |
| 20260505054631 | 54 | 186 | 7.0 | 9.0 | 0.00 | 0.00 | 0.00 | 38 | 1005.1 |
| 20260505054131 | 53 | 170 | 7.0 | 9.0 | 0.00 | 0.00 | 0.00 | 41 | 1005.0 |
| 20260505053630 | 53 | 191 | 8.0 | 9.0 | 0.00 | 0.00 | 0.00 | 43 | 1004.8 |
| 20260505053130 | 53 | 218 | 7.0 | 9.0 | 0.00 | 0.00 | 0.00 | 44 | 1004.8 |
| 20260505052629 | 53 | 183 | 6.0 | 8.0 | 0.00 | 0.00 | 0.00 | 42 | 1004.8 |
| 20260505052127 | 56 | 214 | 6.0 | 8.0 | 0.00 | 0.00 | 0.00 | 37 | 1004.8 |
| 20260505051626 | 57 | 191 | 7.0 | 10.0 | 0.00 | 0.00 | 0.00 | 36 | 1004.8 |
| 20260505051126 | 57 | 174 | 8.0 | 10.0 | 0.00 | 0.00 | 0.00 | 36 | 1004.8 |
| 20260505050625 | 57 | 179 | 9.0 | 11.0 | 0.00 | 0.00 | 0.00 | 37 | 1004.8 |
| 20260505050125 | 57 | 167 | 9.0 | 11.0 | 0.00 | 0.00 | 0.00 | 38 | 1005.0 |
| 20260505041620 | 60 | 162 | 1.0 | 9.0 | 0.00 | 0.00 | 0.00 | 35 | 1005.0 |
| 20260505041118 | 62 | 212 | 6.0 | 9.0 | 0.00 | 0.00 | 0.00 | 31 | 1005.0 |
| 20260505040649 | 61 | 177 | 8.0 | 9.0 | 0.00 | 0.00 | 0.00 | 31 | 1005.0 |
| 20260505040617 | 61 | 177 | 8.0 | 9.0 | 0.00 | 0.00 | 0.00 | 31 | 1005.0 |
| 20260505040117 | 60 | 181 | 8.0 | 9.0 | 0.00 | 0.00 | 0.00 | 32 | 1005.0 |
| 20260505035616 | 58 | 177 | 8.0 | 9.0 | 0.00 | 0.00 | 0.00 | 36 | 1004.8 |
| 20260505035116 | 58 | 179 | 9.0 | 9.0 | 0.00 | 0.00 | 0.00 | 39 | 1004.8 |
| 20260505034615 | 59 | 163 | 7.0 | 8.0 | 0.00 | 0.00 | 0.00 | 38 | 1004.7 |
| 20260505034114 | 58 | 162 | 6.0 | 7.0 | 0.00 | 0.00 | 0.00 | 38 | 1004.7 |
| 20260505033615 | 60 | 246 | 0.0 | 0.0 | 0.00 | 0.00 | 0.00 | 39 | 1004.6 |
| 20260505033113 | 63 | 246 | 0.0 | 0.0 | 0.00 | 0.00 | 0.00 | 33 | 1004.5 |
| 20260505032615 | 65 | 246 | 0.0 | 1.0 | 0.00 | 0.00 | 0.00 | 29 | 1004.4 |
| 20260505032112 | 66 | 246 | 0.0 | 4.0 | 0.00 | 0.00 | 0.00 | 30 | 1004.4 |
| 20260505031612 | 66 | 262 | 1.0 | 4.0 | 0.00 | 0.00 | 0.00 | 29 | 1004.3 |
| 20260505031111 | 66 | 263 | 2.0 | 5.0 | 0.00 | 0.00 | 0.00 | 29 | 1004.3 |
| 20260505030611 | 66 | 276 | 3.0 | 5.0 | 0.00 | 0.00 | 0.00 | 28 | 1004.3 |
| 20260505030110 | 67 | 255 | 4.0 | 6.0 | 0.00 | 0.00 | 0.00 | 28 | 1004.1 |
| 20260505025610 | 67 | 260 | 5.0 | 6.0 | 0.00 | 0.00 | 0.00 | 27 | 1004.1 |
| 20260505025109 | 67 | 271 | 4.0 | 7.0 | 0.00 | 0.00 | 0.00 | 27 | 1004.1 |
| 20260505024609 | 68 | 262 | 5.0 | 8.0 | 0.00 | 0.00 | 0.00 | 28 | 1004.1 |
| 20260505024108 | 68 | 266 | 6.0 | 7.0 | 0.00 | 0.00 | 0.00 | 28 | 1004.1 |
| 20260505023643 | 68 | 271 | 6.0 | 8.0 | 0.00 | 0.00 | 0.00 | 27 | 1004.0 |
| 20260505023607 | 68 | 271 | 6.0 | 8.0 | 0.00 | 0.00 | 0.00 | 27 | 1004.0 |
| 20260505023106 | 69 | 274 | 6.0 | 10.0 | 0.00 | 0.00 | 0.00 | 27 | 1004.0 |
| 20260505022606 | 69 | 267 | 8.0 | 11.0 | 0.00 | 0.00 | 0.00 | 26 | 1004.0 |
| 20260505022105 | 69 | 269 | 8.0 | 10.0 | 0.00 | 0.00 | 0.00 | 26 | 1003.9 |
| 20260505021605 | 70 | 267 | 7.0 | 11.0 | 0.00 | 0.00 | 0.00 | 24 | 1003.9 |
| 20260505021104 | 70 | 274 | 8.0 | 13.0 | 0.00 | 0.00 | 0.00 | 23 | 1003.9 |
| 20260505020604 | 71 | 273 | 11.0 | 13.0 | 0.00 | 0.00 | 0.00 | 23 | 1003.9 |
| 20260505020103 | 71 | 264 | 9.0 | 14.0 | 0.00 | 0.00 | 0.00 | 23 | 1003.8 |
| 20260505015603 | 72 | 271 | 9.0 | 14.0 | 0.00 | 0.00 | 0.00 | 23 | 1003.9 |
| 20260505015102 | 72 | 277 | 9.0 | 14.0 | 0.00 | 0.00 | 0.00 | 23 | 1003.8 |
| 20260505014602 | 73 | 271 | 10.0 | 14.0 | 0.00 | 0.00 | 0.00 | 22 | 1003.8 |
| 20260505014059 | 73 | 255 | 11.0 | 14.0 | 0.00 | 0.00 | 0.00 | 23 | 1003.8 |
| 20260505013559 | 73 | 236 | 11.0 | 14.0 | 0.00 | 0.00 | 0.00 | 22 | 1003.9 |
| 20260505013058 | 73 | 269 | 11.0 | 12.0 | 0.00 | 0.00 | 0.00 | 20 | 1003.9 |
| 20260505012557 | 74 | 273 | 8.0 | 14.0 | 0.00 | 0.00 | 0.00 | 21 | 1003.9 |
| 20260505012057 | 74 | 273 | 8.0 | 13.0 | 0.00 | 0.00 | 0.00 | 22 | 1003.9 |
| 20260505011558 | 75 | 252 | 7.0 | 11.0 | 0.00 | 0.00 | 0.00 | 20 | 1003.9 |
| 20260505011056 | 75 | 263 | 6.0 | 11.0 | 0.00 | 0.00 | 0.00 | 21 | 1003.9 |
| 20260505010555 | 75 | 269 | 9.0 | 11.0 | 0.00 | 0.00 | 0.00 | 20 | 1004.0 |
| 20260505010053 | 76 | 248 | 6.0 | 6.0 | 0.00 | 0.00 | 0.00 | 20 | 1004.0 |
| 20260505005552 | 75 | 294 | 4.0 | 11.0 | 0.00 | 0.00 | 0.00 | 20 | 1004.0 |
| 20260505005052 | 75 | 287 | 7.0 | 12.0 | 0.00 | 0.00 | 0.00 | 19 | 1004.0 |
| 20260505004739 | 75 | 294 | 8.0 | 13.0 | 0.00 | 0.00 | 0.00 | 21 | 1004.0 |
| 20260505004551 | 75 | 294 | 8.0 | 13.0 | 0.00 | 0.00 | 0.00 | 21 | 1004.0 |
| 20260505004051 | 75 | 287 | 8.0 | 10.0 | 0.00 | 0.00 | 0.00 | 18 | 1004.1 |
| 20260505003550 | 76 | 295 | 7.0 | 9.0 | 0.00 | 0.00 | 0.00 | 21 | 1004.1 |
| 20260505003050 | 75 | 238 | 5.0 | 12.0 | 0.00 | 0.00 | 0.00 | 19 | 1004.1 |
| 20260505002548 | 75 | 273 | 10.0 | 13.0 | 0.00 | 0.00 | 0.00 | 19 | 1004.1 |
| 20260505002048 | 75 | 284 | 8.0 | 11.0 | 0.00 | 0.00 | 0.00 | 19 | 1004.1 |
| 20260505001547 | 75 | 277 | 7.0 | 14.0 | 0.00 | 0.00 | 0.00 | 18 | 1004.3 |
| 20260505001047 | 75 | 269 | 10.0 | 14.0 | 0.00 | 0.00 | 0.00 | 18 | 1004.3 |
| 20260505000546 | 75 | 267 | 10.0 | 11.0 | 0.00 | 0.00 | 0.00 | 18 | 1004.3 |
| 20260505000046 | 76 | 287 | 8.0 | 14.0 | 0.00 | 0.00 | 0.00 | 16 | 1004.3 |
| 20260504235545 | 75 | 280 | 7.0 | 13.0 | 0.00 | 0.00 | 0.00 | 18 | 1004.3 |
| 20260504235045 | 75 | 281 | 8.0 | 15.0 | 0.00 | 0.00 | 0.00 | 17 | 1004.3 |
| 20260504234544 | 75 | 277 | 12.0 | 16.0 | 0.00 | 0.00 | 0.00 | 18 | 1004.3 |
| 20260504234044 | 75 | 274 | 9.0 | 14.0 | 0.00 | 0.00 | 0.00 | 17 | 1004.1 |
| 20260504233543 | 75 | 308 | 10.0 | 13.0 | 0.00 | 0.00 | 0.00 | 18 | 1004.3 |
| 20260504233043 | 75 | 298 | 9.0 | 14.0 | 0.00 | 0.00 | 0.00 | 18 | 1004.3 |
| 20260504232619 | 75 | 285 | 10.0 | 14.0 | 0.00 | 0.00 | 0.00 | 17 | 1004.3 |
| 20260504232542 | 75 | 285 | 10.0 | 14.0 | 0.00 | 0.00 | 0.00 | 17 | 1004.3 |
| 20260504232041 | 75 | 266 | 9.0 | 13.0 | 0.00 | 0.00 | 0.00 | 18 | 1004.3 |
| 20260504231541 | 75 | 278 | 10.0 | 17.0 | 0.00 | 0.00 | 0.00 | 17 | 1004.4 |
| 20260504231116 | 76 | 284 | 8.0 | 13.0 | 0.00 | 0.00 | 0.00 | 18 | 1004.3 |
| 20260504231040 | 76 | 284 | 8.0 | 13.0 | 0.00 | 0.00 | 0.00 | 18 | 1004.3 |
| 20260504230617 | 75 | 280 | 10.0 | 14.0 | 0.00 | 0.00 | 0.00 | 17 | 1004.4 |
| 20260504230540 | 75 | 280 | 10.0 | 14.0 | 0.00 | 0.00 | 0.00 | 17 | 1004.4 |
| 20260504230040 | 75 | 270 | 10.0 | 16.0 | 0.00 | 0.00 | 0.00 | 20 | 1004.4 |
| 20260504225539 | 74 | 291 | 11.0 | 15.0 | 0.00 | 0.00 | 0.00 | 20 | 1004.5 |
| 20260504225038 | 75 | 309 | 12.0 | 17.0 | 0.00 | 0.00 | 0.00 | 21 | 1004.6 |
| 20260504224538 | 75 | 281 | 10.0 | 14.0 | 0.00 | 0.00 | 0.00 | 20 | 1004.6 |
| 20260504224037 | 75 | 280 | 11.0 | 19.0 | 0.00 | 0.00 | 0.00 | 23 | 1004.6 |
| 20260504223035 | 75 | 314 | 11.0 | 17.0 | 0.00 | 0.00 | 0.00 | 22 | 1004.7 |
| 20260504222535 | 74 | 280 | 12.0 | 17.0 | 0.00 | 0.00 | 0.00 | 22 | 1004.8 |
| 20260504222034 | 75 | 301 | 12.0 | 16.0 | 0.00 | 0.00 | 0.00 | 20 | 1004.8 |
| 20260504221033 | 74 | 284 | 9.0 | 12.0 | 0.00 | 0.00 | 0.00 | 20 | 1005.2 |
| 20260504220533 | 74 | 315 | 8.0 | 16.0 | 0.00 | 0.00 | 0.00 | 22 | 1005.2 |
| 20260504220032 | 74 | 281 | 12.0 | 12.0 | 0.00 | 0.00 | 0.00 | 24 | 1005.2 |
| 20260504215532 | 74 | 288 | 6.0 | 11.0 | 0.00 | 0.00 | 0.00 | 22 | 1005.3 |
| 20260504215031 | 74 | 315 | 8.0 | 15.0 | 0.00 | 0.00 | 0.00 | 26 | 1005.4 |
| 20260504214619 | 74 | 285 | 9.0 | 16.0 | 0.00 | 0.00 | 0.00 | 27 | 1005.4 |
| 20260504214531 | 74 | 285 | 9.0 | 16.0 | 0.00 | 0.00 | 0.00 | 27 | 1005.4 |
| 20260504214029 | 74 | 319 | 10.0 | 15.0 | 0.00 | 0.00 | 0.00 | 26 | 1005.5 |
| 20260504213529 | 73 | 255 | 11.0 | 13.0 | 0.00 | 0.00 | 0.00 | 24 | 1005.6 |
| 20260504213028 | 73 | 307 | 8.0 | 15.0 | 0.00 | 0.00 | 0.00 | 28 | 1005.6 |
| 20260504212027 | 72 | 274 | 10.0 | 15.0 | 0.00 | 0.00 | 0.00 | 27 | 1006.0 |
| 20260504211526 | 72 | 273 | 11.0 | 15.0 | 0.00 | 0.00 | 0.00 | 28 | 1006.0 |
| 20260504211025 | 73 | 277 | 11.0 | 12.0 | 0.00 | 0.00 | 0.00 | 27 | 1006.1 |
| 20260504210525 | 72 | 294 | 9.0 | 18.0 | 0.00 | 0.00 | 0.00 | 30 | 1006.1 |
| 20260504210024 | 73 | 283 | 11.0 | 19.0 | 0.00 | 0.00 | 0.00 | 30 | 1006.2 |
| 20260504205524 | 73 | 281 | 7.0 | 16.0 | 0.00 | 0.00 | 0.00 | 30 | 1006.2 |
| 20260504205023 | 71 | 274 | 13.0 | 13.0 | 0.00 | 0.00 | 0.00 | 31 | 1006.3 |
| 20260504204523 | 72 | 329 | 8.0 | 16.0 | 0.00 | 0.00 | 0.00 | 32 | 1006.3 |
| 20260504204019 | 72 | 278 | 11.0 | 17.0 | 0.00 | 0.00 | 0.00 | 29 | 1006.5 |
| 20260504203518 | 71 | 281 | 13.0 | 18.0 | 0.00 | 0.00 | 0.00 | 32 | 1006.5 |
| 20260504203018 | 72 | 312 | 13.0 | 20.0 | 0.00 | 0.00 | 0.00 | 33 | 1006.5 |
| 20260504202517 | 72 | 264 | 11.0 | 16.0 | 0.00 | 0.00 | 0.00 | 34 | 1006.5 |
| 20260504202017 | 72 | 271 | 11.0 | 18.0 | 0.00 | 0.00 | 0.00 | 32 | 1006.6 |
| 20260504201016 | 71 | 298 | 11.0 | 17.0 | 0.00 | 0.00 | 0.00 | 35 | 1006.7 |
| 20260504200553 | 72 | 295 | 11.0 | 17.0 | 0.00 | 0.00 | 0.00 | 33 | 1006.8 |
| 20260504200515 | 72 | 295 | 11.0 | 17.0 | 0.00 | 0.00 | 0.00 | 33 | 1006.8 |
| 20260504200015 | 72 | 264 | 13.0 | 19.0 | 0.00 | 0.00 | 0.00 | 32 | 1006.9 |
| 20260504195514 | 70 | 283 | 14.0 | 18.0 | 0.00 | 0.00 | 0.00 | 31 | 1006.9 |
| 20260504195014 | 71 | 287 | 11.0 | 22.0 | 0.00 | 0.00 | 0.00 | 34 | 1006.8 |
| 20260504194513 | 71 | 259 | 13.0 | 18.0 | 0.00 | 0.00 | 0.00 | 33 | 1006.9 |
| 20260504194013 | 71 | 260 | 10.0 | 21.0 | 0.00 | 0.00 | 0.00 | 32 | 1006.9 |
| 20260504193512 | 72 | 270 | 12.0 | 18.0 | 0.00 | 0.00 | 0.00 | 33 | 1007.0 |
| 20260504193012 | 70 | 287 | 12.0 | 19.0 | 0.00 | 0.00 | 0.00 | 32 | 1007.0 |
| 20260504192511 | 70 | 277 | 13.0 | 18.0 | 0.00 | 0.00 | 0.00 | 33 | 1007.0 |
| 20260504192011 | 71 | 283 | 11.0 | 19.0 | 0.00 | 0.00 | 0.00 | 32 | 1007.1 |
| 20260504191510 | 70 | 290 | 13.0 | 19.0 | 0.00 | 0.00 | 0.00 | 32 | 1007.1 |
| 20260504191010 | 70 | 281 | 13.0 | 18.0 | 0.00 | 0.00 | 0.00 | 33 | 1007.3 |
| 20260504190509 | 71 | 267 | 12.0 | 18.0 | 0.00 | 0.00 | 0.00 | 35 | 1007.3 |
| 20260504190009 | 70 | 283 | 12.0 | 18.0 | 0.00 | 0.00 | 0.00 | 35 | 1007.3 |
| 20260504185508 | 70 | 285 | 10.0 | 15.0 | 0.00 | 0.00 | 0.00 | 34 | 1007.4 |
| 20260504185008 | 70 | 240 | 12.0 | 18.0 | 0.00 | 0.00 | 0.00 | 34 | 1007.4 |
| 20260504184507 | 70 | 285 | 11.0 | 19.0 | 0.00 | 0.00 | 0.00 | 34 | 1007.4 |
| 20260504183506 | 69 | 257 | 11.0 | 20.0 | 0.00 | 0.00 | 0.00 | 33 | 1007.6 |
| 20260504183053 | 69 | 269 | 17.0 | 20.0 | 0.00 | 0.00 | 0.00 | 32 | 1007.6 |
| 20260504183006 | 69 | 269 | 17.0 | 20.0 | 0.00 | 0.00 | 0.00 | 32 | 1007.6 |
| 20260504182505 | 69 | 300 | 10.0 | 17.0 | 0.00 | 0.00 | 0.00 | 32 | 1007.8 |
| 20260504182004 | 69 | 267 | 11.0 | 13.0 | 0.00 | 0.00 | 0.00 | 31 | 1007.7 |
| 20260504181504 | 70 | 207 | 10.0 | 19.0 | 0.00 | 0.00 | 0.00 | 29 | 1008.0 |
| 20260504181003 | 71 | 293 | 10.0 | 17.0 | 0.00 | 0.00 | 0.00 | 31 | 1008.0 |
| 20260504180503 | 69 | 262 | 13.0 | 16.0 | 0.00 | 0.00 | 0.00 | 30 | 1008.1 |
| 20260504180002 | 69 | 225 | 9.0 | 17.0 | 0.00 | 0.00 | 0.00 | 30 | 1008.1 |
| 20260504175502 | 70 | 278 | 7.0 | 12.0 | 0.00 | 0.00 | 0.00 | 31 | 1008.1 |
| 20260504175001 | 69 | 277 | 9.0 | 15.0 | 0.00 | 0.00 | 0.00 | 31 | 1008.2 |
| 20260504174000 | 69 | 264 | 10.0 | 16.0 | 0.00 | 0.00 | 0.00 | 34 | 1008.2 |
| 20260504173500 | 68 | 211 | 10.0 | 18.0 | 0.00 | 0.00 | 0.00 | 31 | 1008.3 |
| 20260504172959 | 67 | 267 | 13.0 | 17.0 | 0.00 | 0.00 | 0.00 | 32 | 1008.3 |
| 20260504172459 | 68 | 240 | 14.0 | 13.0 | 0.00 | 0.00 | 0.00 | 33 | 1008.3 |
| 20260504171959 | 67 | 274 | 11.0 | 15.0 | 0.00 | 0.00 | 0.00 | 32 | 1008.3 |
| 20260504171458 | 67 | 232 | 13.0 | 16.0 | 0.00 | 0.00 | 0.00 | 31 | 1008.4 |
| 20260504170957 | 67 | 266 | 10.0 | 22.0 | 0.00 | 0.00 | 0.00 | 32 | 1008.4 |
| 20260504170456 | 67 | 239 | 12.0 | 16.0 | 0.00 | 0.00 | 0.00 | 32 | 1008.4 |
| 20260504160447 | 65 | 246 | 11.0 | 16.0 | 0.00 | 0.00 | 0.00 | 34 | 1008.6 |
| 20260504150939 | 62 | 256 | 9.0 | 15.0 | 0.00 | 0.00 | 0.00 | 38 | 1009.0 |
| 20260504150438 | 62 | 214 | 13.0 | 16.0 | 0.00 | 0.00 | 0.00 | 39 | 1009.0 |